| time (UTC) | temp F | wind direction | speed MPH | gust MPH | rain 1hr in | rain 24hr in | rain mn in | humidity % | barometer mb |
| 20260506050137 | 46 | 323 | 0.0 | 2.0 | 0.03 | 1.05 | 0.03 | 92 | 1001.7 |
| 20260506044512 | 46 | 347 | 0.0 | 3.0 | 0.02 | 1.04 | 0.02 | 90 | 1001.7 |
| 20260506043100 | 46 | 350 | 1.0 | 3.0 | 0.03 | 1.04 | 0.02 | 91 | 1001.8 |
| 20260506041527 | 46 | 28 | 1.0 | 4.0 | 0.04 | 1.03 | 0.01 | 91 | 1001.9 |
| 20260506040054 | 47 | 10 | 2.0 | 4.0 | 0.05 | 1.02 | 0.00 | 92 | 1002.0 |
| 20260506034642 | 47 | 55 | 0.0 | 3.0 | 0.08 | 1.02 | 1.02 | 93 | 1002.2 |
| 20260506033155 | 48 | 299 | 1.0 | 4.0 | 0.11 | 1.01 | 1.01 | 94 | 1002.4 |
| 20260506031511 | 48 | 303 | 0.0 | 2.0 | 0.13 | 0.99 | 0.99 | 94 | 1002.5 |
| 20260506030055 | 48 | 323 | 0.0 | 2.0 | 0.15 | 0.97 | 0.97 | 94 | 1002.5 |
| 20260506024641 | 48 | 304 | 0.0 | 3.0 | 0.16 | 0.94 | 0.94 | 94 | 1002.4 |
| 20260506023030 | 48 | 306 | 0.0 | 2.0 | 0.18 | 0.90 | 0.90 | 94 | 1002.5 |
| 20260506021606 | 49 | 306 | 0.0 | 2.0 | 0.16 | 0.86 | 0.86 | 94 | 1002.3 |
| 20260506020138 | 49 | 32 | 0.0 | 2.0 | 0.14 | 0.82 | 0.82 | 94 | 1002.0 |
| 20260506014516 | 49 | 5 | 0.0 | 2.0 | 0.09 | 0.77 | 0.77 | 94 | 1001.7 |
| 20260506013109 | 49 | 16 | 0.0 | 3.0 | 0.05 | 0.72 | 0.72 | 94 | 1001.7 |
| 20260506011647 | 49 | 31 | 2.0 | 3.0 | 0.03 | 0.70 | 0.70 | 94 | 1001.5 |
| 20260506010024 | 49 | 40 | 1.0 | 3.0 | 0.03 | 0.68 | 0.68 | 94 | 1001.6 |
| 20260506004555 | 49 | 292 | 0.0 | 2.0 | 0.05 | 0.68 | 0.68 | 94 | 1001.7 |
| 20260506003009 | 49 | 326 | 0.0 | 2.0 | 0.07 | 0.67 | 0.67 | 94 | 1001.6 |
| 20260506001556 | 49 | 355 | 0.0 | 8.0 | 0.08 | 0.67 | 0.67 | 94 | 1001.3 |
| 20260506000144 | 49 | 283 | 3.0 | 6.0 | 0.06 | 0.65 | 0.65 | 93 | 1001.4 |
| 20260505234516 | 50 | 16 | 2.0 | 6.0 | 0.04 | 0.62 | 0.62 | 93 | 1000.7 |
| 20260505233108 | 50 | 44 | 2.0 | 6.0 | 0.04 | 0.60 | 0.60 | 93 | 1000.9 |
| 20260505231520 | 50 | 12 | 1.0 | 4.0 | 0.08 | 0.59 | 0.59 | 93 | 1001.0 |
| 20260505230108 | 50 | 20 | 1.0 | 4.0 | 0.11 | 0.59 | 0.59 | 93 | 1000.9 |
| 20260505224642 | 50 | 320 | 0.0 | 2.0 | 0.12 | 0.57 | 0.57 | 93 | 1001.6 |
| 20260505223027 | 50 | 262 | 2.0 | 5.0 | 0.15 | 0.56 | 0.56 | 93 | 1001.7 |
| 20260505221552 | 50 | 299 | 1.0 | 4.0 | 0.14 | 0.51 | 0.51 | 92 | 1001.3 |
| 20260505220038 | 52 | 305 | 0.0 | 3.0 | 0.14 | 0.48 | 0.48 | 93 | 1000.8 |
| 20260505214606 | 53 | 240 | 1.0 | 2.0 | 0.16 | 0.46 | 0.46 | 92 | 1000.8 |
| 20260505213040 | 56 | 205 | 0.0 | 3.0 | 0.17 | 0.41 | 0.41 | 93 | 1000.4 |
| 20260505211612 | 56 | 232 | 1.0 | 5.0 | 0.17 | 0.37 | 0.37 | 93 | 1000.5 |
| 20260505210016 | 56 | 220 | 0.0 | 4.0 | 0.19 | 0.34 | 0.34 | 93 | 1000.5 |
| 20260505204608 | 56 | 202 | 0.0 | 4.0 | 0.18 | 0.30 | 0.30 | 93 | 1000.6 |
| 20260505203041 | 56 | 294 | 1.0 | 3.0 | 0.16 | 0.24 | 0.24 | 93 | 1000.7 |
| 20260505201604 | 56 | 247 | 0.0 | 5.0 | 0.15 | 0.20 | 0.20 | 92 | 1000.6 |
| 20260505200029 | 57 | 276 | 0.0 | 4.0 | 0.12 | 0.15 | 0.15 | 92 | 1000.6 |
| 20260505194607 | 57 | 294 | 0.0 | 4.0 | 0.11 | 0.12 | 0.12 | 91 | 1000.6 |
| 20260505193002 | 57 | 259 | 1.0 | 5.0 | 0.08 | 0.08 | 0.08 | 90 | 1000.8 |
| 20260505191602 | 57 | 227 | 0.0 | 5.0 | 0.05 | 0.05 | 0.05 | 89 | 1000.9 |
| 20260505190142 | 58 | 252 | 2.0 | 4.0 | 0.03 | 0.03 | 0.03 | 87 | 1000.9 |
| 20260505184506 | 58 | 239 | 1.0 | 5.0 | 0.01 | 0.01 | 0.01 | 86 | 1001.0 |
| 20260505183100 | 60 | 244 | 2.0 | 7.0 | 0.00 | 0.00 | 0.00 | 81 | 1001.1 |
| 20260505181509 | 61 | 270 | 2.0 | 8.0 | 0.00 | 0.00 | 0.00 | 76 | 1000.8 |
| 20260505174638 | 63 | 253 | 4.0 | 10.0 | 0.00 | 0.00 | 0.00 | 71 | 1000.6 |
| 20260505173143 | 64 | 219 | 6.0 | 15.0 | 0.00 | 0.00 | 0.00 | 70 | 1000.6 |
| 20260505171541 | 64 | 193 | 4.0 | 10.0 | 0.00 | 0.00 | 0.00 | 70 | 1000.6 |
| 20260505170109 | 63 | 200 | 2.0 | 11.0 | 0.00 | 0.00 | 0.00 | 71 | 1000.6 |
| 20260505164551 | 64 | 234 | 6.0 | 12.0 | 0.00 | 0.00 | 0.00 | 69 | 1000.6 |
| 20260505163106 | 64 | 250 | 4.0 | 14.0 | 0.00 | 0.00 | 0.00 | 68 | 1000.6 |
| 20260505161642 | 64 | 275 | 5.0 | 17.0 | 0.00 | 0.00 | 0.00 | 68 | 1000.4 |
| 20260505153046 | 67 | 205 | 9.0 | 21.0 | 0.00 | 0.00 | 0.00 | 62 | 999.9 |
| 20260505151611 | 66 | 206 | 11.0 | 25.0 | 0.00 | 0.00 | 0.00 | 63 | 999.3 |
| 20260505150144 | 66 | 229 | 7.0 | 20.0 | 0.00 | 0.00 | 0.00 | 63 | 999.0 |
| 20260505140110 | 64 | 188 | 3.0 | 17.0 | 0.00 | 0.00 | 0.00 | 67 | 999.2 |
| 20260505130103 | 61 | 184 | 8.0 | 18.0 | 0.00 | 0.00 | 0.00 | 73 | 998.7 |
| 20260505124644 | 61 | 204 | 5.0 | 10.0 | 0.00 | 0.00 | 0.00 | 74 | 999.0 |
| 20260505123047 | 61 | 184 | 7.0 | 17.0 | 0.00 | 0.00 | 0.00 | 73 | 999.1 |
| 20260505121521 | 61 | 211 | 7.0 | 11.0 | 0.00 | 0.00 | 0.00 | 71 | 998.8 |
| 20260505120051 | 61 | 187 | 6.0 | 13.0 | 0.00 | 0.00 | 0.00 | 71 | 998.5 |
| 20260505114642 | 61 | 177 | 5.0 | 9.0 | 0.00 | 0.00 | 0.00 | 71 | 997.9 |
| 20260505113018 | 60 | 185 | 4.0 | 7.0 | 0.00 | 0.00 | 0.00 | 72 | 997.3 |
| 20260505111557 | 60 | 200 | 7.0 | 11.0 | 0.00 | 0.00 | 0.00 | 72 | 997.1 |
| 20260505101515 | 62 | 241 | 4.0 | 13.0 | 0.00 | 0.00 | 0.00 | 69 | 997.3 |
| 20260505100055 | 62 | 211 | 9.0 | 18.0 | 0.00 | 0.00 | 0.00 | 68 | 997.3 |
| 20260505094647 | 63 | 199 | 8.0 | 16.0 | 0.00 | 0.00 | 0.00 | 66 | 997.2 |
| 20260505093057 | 63 | 199 | 8.0 | 15.0 | 0.00 | 0.00 | 0.00 | 65 | 996.6 |
| 20260505091551 | 64 | 170 | 7.0 | 16.0 | 0.00 | 0.00 | 0.00 | 64 | 996.5 |
| 20260505090108 | 64 | 212 | 6.0 | 16.0 | 0.00 | 0.00 | 0.00 | 64 | 996.6 |
| 20260505084553 | 65 | 201 | 8.0 | 14.0 | 0.00 | 0.00 | 0.00 | 62 | 996.2 |
| 20260505083142 | 66 | 203 | 14.0 | 22.0 | 0.00 | 0.00 | 0.00 | 60 | 996.1 |
| 20260505081550 | 66 | 179 | 10.0 | 19.0 | 0.00 | 0.00 | 0.00 | 59 | 996.0 |
| 20260505080110 | 67 | 187 | 8.0 | 23.0 | 0.00 | 0.00 | 0.00 | 58 | 996.0 |
| 20260505074639 | 67 | 236 | 10.0 | 22.0 | 0.00 | 0.00 | 0.00 | 57 | 995.8 |
| 20260505073029 | 68 | 204 | 13.0 | 22.0 | 0.00 | 0.00 | 0.00 | 56 | 995.7 |
| 20260505071610 | 68 | 205 | 8.0 | 21.0 | 0.00 | 0.00 | 0.00 | 56 | 995.8 |
| 20260505070135 | 68 | 219 | 9.0 | 19.0 | 0.00 | 0.00 | 0.00 | 56 | 995.8 |
| 20260505064508 | 68 | 197 | 9.0 | 27.0 | 0.00 | 0.00 | 0.00 | 57 | 995.8 |
| 20260505063058 | 68 | 208 | 11.0 | 18.0 | 0.00 | 0.00 | 0.00 | 57 | 995.8 |
| 20260505061515 | 67 | 202 | 7.0 | 19.0 | 0.00 | 0.00 | 0.00 | 60 | 995.8 |
| 20260505060054 | 67 | 166 | 6.0 | 18.0 | 0.00 | 0.00 | 0.00 | 62 | 995.9 |